Regional Weather Roundup
Issued by NWS Goodland, KS

Home | Current Version | Previous Version | Text Only | Print | Product List | Glossary Off
Versions: 1 2 3 4 5 6 7 8 9 10 11 12 13 14 15 16 17 18 19 20 21 22 23 24 25 26 27 28 29 30 31 32 33 34 35 36 37 38 39 40 41 42 43 44 45 46 47 48 49 50

000
ASUS43 KGLD 230508
RWRGLD

GOODLAND FORECAST AREA HOURLY WEATHER ROUNDUP
NATIONAL WEATHER SERVICE GOODLAND KS
1100 PM MDT TUE APR 22 2014

...OFFICIAL OBSERVATIONS...

CITY           SKY/WX    TMP DP  RH WIND       PRES   REMARKS
GOODLAND KS    PTCLDY    59  48  67 SE26G36   29.74F
HILL CITY KS   CLOUDY    60  40  47 SE16G26   29.82F
IMPERIAL NEB   MOCLDY    63  46  54 S23G38    29.70F
MCCOOK NEB     MOCLDY    65  42  43 S24G41    29.73F
AKRON CO       PTCLDY    62  42  47 S22       29.68F
BURLINGTON CO  MOCLDY    57  46  66 S22       29.74F
LIMON CO       MOCLDY    55  41  59 SE10      29.75F
$$

...UNOFFICIAL OBSERVATIONS...

CITY           SKY/WX    TMP DP  RH WIND       PRES   REMARKS
COLBY KS       CLEAR     59  46  63 SE24G30   29.78F
LENORA KS        N/A     62  32  32 S28G35      N/A
LEOTI KS         N/A     64  32  30 S24         N/A
NORTON KS      CLEAR     59  36  41 SE20G28   29.78F
OBERLIN KS     FAIR      63  36  36 S30G38    29.74F
SHARON SPRINGS   N/A     60  49  67 S17G25      N/A
ST FRANCIS KS  PTCLDY    61  45  55 SE31G39   29.69F
WAKEENEY KS      N/A     59  36  41 MISG        N/A
KIT CARSON CO    N/A     60  43  54 MISG        N/A
$$



USA.gov is the U.S. government's official web portal to all federal, state and local government web resources and services.